Weather History for St. Joseph, MO

Change the Weather History Date:

Monday, March 11, 2013

  Actual Average Record
Temperature  
Mean Temperature 30 °F 41 °F  
Max Temperature 36 °F 52 °F 86 °F (1972)
Min Temperature 24 °F 29 °F -7 °F (1948)
Degree Days  
Heating Degree Days 35 24  
Month to date heating degree days 333 290  
Since 1 July heating degree days 4437 4598  
Cooling Degree Days 0 0  
Month to date cooling degree days 0 0  
Year to date cooling degree days 0 0  
Moisture  
Dew Point 20 °F    
Average Humidity 68    
Maximum Humidity 84    
Minimum Humidity 52    
Precipitation  
Precipitation T in 0.06 in 2.80 in (1939)
Month to date precipitation 1.19 0.65  
Year to date precipitation 2.20 2.14  
Sea Level Pressure  
Sea Level Pressure 29.95 in    
Wind  
Wind Speed 11 mph (WNW)    
Max Wind Speed 25 mph    
Max Gust Speed 31 mph    
Visibility 10 miles    
Events Snow    
T = Trace of Precipitation, MM = Missing Value Source: NWS Daily Summary

Daily Weather History Graph

Daily Weather History Graph

Search for Another Location

Airport:

Trip Planner

Search our weather history database for the weather conditions in past years. The results will help you decide how hot, cold, wet, or windy it might be!

Date:

Astronomy

Mar. 11, 2013 Rise Set
Actual Time 7:36 AM CDT 7:22 PM CDT
Civil Twilight 7:10 AM CDT 7:49 PM CDT
Nautical Twilight 6:38 AM CDT 8:20 PM CDT
Astronomical Twilight 6:07 AM CDT 8:52 PM CDT
Moon 7:11 AM CDT (3/11) 7:35 PM CDT (3/11)
Length of Visible Light 12h 39m
Length of Day
11h 45m
Waning Crescent, 0% of the Moon is Illuminated
Mar 11
Waning Crescent
Mar 11
New
Mar 19
First Quarter
Mar 27
Full
Apr 2
Last Quarter

Hourly Weather History & Observations

Time (CDT) Temp. Windchill Dew Point Humidity Pressure Visibility Wind Dir Wind Speed Gust Speed Precip Events Conditions
12:53 AM 28.9 °F 16.9 °F 23.0 °F 78% 29.91 in 10.0 mi NNW 17.3 mph - N/A   Overcast
1:53 AM 28.0 °F 14.3 °F 21.0 °F 75% 29.90 in 10.0 mi NNW 21.9 mph 29.9 mph N/A   Overcast
2:53 AM 27.0 °F 15.6 °F 21.0 °F 78% 29.91 in 10.0 mi NW 13.8 mph 21.9 mph N/A   Overcast
3:53 AM 26.1 °F 13.1 °F 21.0 °F 81% 29.89 in 10.0 mi NW 17.3 mph - N/A   Overcast
4:53 AM 26.1 °F 12.7 °F 19.9 °F 78% 29.88 in 10.0 mi NW 18.4 mph 25.3 mph N/A   Overcast
5:53 AM 26.1 °F 13.6 °F 19.9 °F 78% 29.89 in 10.0 mi NW 16.1 mph - N/A   Overcast
6:53 AM 26.1 °F 14.0 °F 19.9 °F 78% 29.92 in 10.0 mi NW 15.0 mph 23.0 mph N/A   Overcast
7:53 AM 25.0 °F 13.1 °F 19.0 °F 78% 29.94 in 5.0 mi WNW 13.8 mph - 0.00 in Snow Light Snow
8:20 AM 24.8 °F 12.9 °F 19.4 °F 80% 29.92 in 3.0 mi WNW 13.8 mph - 0.00 in Snow Light Snow
8:53 AM 25.0 °F 13.6 °F 19.0 °F 78% 29.95 in 10.0 mi WNW 12.7 mph - 0.00 in   Overcast
9:53 AM 25.0 °F 13.6 °F 19.0 °F 78% 29.96 in 10.0 mi WNW 12.7 mph - N/A   Overcast
10:53 AM 26.1 °F 13.1 °F 19.0 °F 75% 29.96 in 10.0 mi NW 17.3 mph - N/A   Overcast
11:53 AM 27.0 °F 16.1 °F 19.0 °F 72% 29.96 in 10.0 mi WNW 12.7 mph - N/A   Overcast
12:53 PM 28.9 °F 18.6 °F 19.9 °F 69% 29.97 in 10.0 mi WNW 12.7 mph - N/A   Overcast
1:53 PM 30.0 °F 19.5 °F 21.0 °F 69% 29.97 in 10.0 mi West 13.8 mph - N/A   Overcast
2:53 PM 30.0 °F 19.5 °F 19.0 °F 64% 29.96 in 10.0 mi WNW 13.8 mph - N/A   Overcast
3:39 PM 32.0 °F 22.5 °F 19.4 °F 60% 29.92 in 10.0 mi WNW 12.7 mph 16.1 mph N/A   Scattered Clouds
3:53 PM 32.0 °F 22.5 °F 19.9 °F 61% 29.94 in 10.0 mi West 12.7 mph - N/A   Scattered Clouds
4:53 PM 35.1 °F 26.4 °F 21.0 °F 57% 29.94 in 10.0 mi WNW 12.7 mph - N/A   Clear
6:53 PM 33.1 °F 26.1 °F 19.9 °F 59% 29.97 in 10.0 mi West 8.1 mph - N/A   Clear
7:53 PM 32.0 °F - 19.9 °F 61% 30.00 in 10.0 mi Calm Calm - N/A   Clear
8:53 PM 28.9 °F - 21.0 °F 72% 30.00 in 10.0 mi Calm Calm - N/A   Partly Cloudy
9:53 PM 28.9 °F - 23.0 °F 78% 30.02 in 10.0 mi Calm Calm - N/A   Clear
10:53 PM 27.0 °F - 23.0 °F 85% 30.02 in 10.0 mi Calm Calm - N/A   Clear
11:53 PM 28.0 °F 24.2 °F 23.0 °F 81% 30.06 in 10.0 mi West 3.5 mph - N/A   Clear